EA5AFP-10 Weather Reports


Display with metric or nautical units.
time (UTC)temp
F
wind
direction
speed
MPH
gust
MPH
rain 1hr
in
rain 24hr
in
rain mn
in
humidity
%
barometer
mb
20260904045645 75 270 2.0 2.0 0.00 0.00 0.00 9 1015.7
20260904045416 75 270 2.0 2.0 0.00 0.00 0.00 9 1015.7
20260904045350 75 270 2.0 3.0 0.00 0.00 0.00 9 1015.7
20260904044933 75 270 2.0 3.0 0.00 0.00 0.00 9 1015.8
20260904044521 75 270 2.0 3.0 0.00 0.00 0.00 9 1015.8
20260904044037 75 292 2.0 3.0 0.00 0.00 0.00 9 1015.7
20260904043620 75 0 0.0 0.0 0.00 0.00 0.00 9 1015.8
20260904043155 75 0 0.0 0.0 0.00 0.00 0.00 9 1015.7
20260904042701 75 292 1.0 1.0 0.00 0.00 0.00 9 1015.5
20260904042402 75 292 1.0 2.0 0.00 0.00 0.00 9 1015.6
20260904042255 75 292 1.0 2.0 0.00 0.00 0.00 9 1015.8
20260904041923 75 292 2.0 2.0 0.00 0.00 0.00 9 1015.6
20260904041438 75 292 2.0 3.0 0.00 0.00 0.00 9 1015.6
20260904041350 75 292 2.0 3.0 0.00 0.00 0.00 9 1015.7
20260904041014 76 292 2.0 2.0 0.00 0.00 0.00 9 1015.7
20260904040544 76 292 1.0 2.0 0.00 0.00 0.00 9 1015.7
20260904040109 76 0 0.0 0.0 0.00 0.00 0.00 9 1015.7
20260904035633 76 270 0.0 1.0 0.00 0.00 0.00 9 1015.7
20260904035245 76 0 0.0 1.0 0.00 0.00 0.00 9 1015.9
20260904034756 77 0 0.0 0.0 0.00 0.00 0.00 9 1015.8
20260904034305 77 270 1.0 2.0 0.00 0.00 0.00 9 1015.8
20260904033840 77 292 1.0 1.0 0.00 0.00 0.00 9 1015.9
20260904033417 78 270 1.0 1.0 0.00 0.00 0.00 9 1015.7
20260904032942 78 270 1.0 1.0 0.00 0.00 0.00 9 1015.8
20260904032505 78 292 1.0 2.0 0.00 0.00 0.00 9 1015.7
20260904032045 78 270 1.0 2.0 0.00 0.00 0.00 9 1015.8
20260904031614 0 0 0.0 0.0 0.00 0.00 0.00 100
20260904031140 0 0 0.0 0.0 0.00 0.00 0.00 100
20260904030715 0 0 0.0 0.0 0.00 0.00 0.00 100
20260904030310 0 0 0.0 0.0 0.00 0.00 0.00 100
20260904025845 0 0 0.0 0.0 0.00 0.00 0.00 100
20260904025413 78 315 3.0 3.0 0.00 0.00 0.00 9 1016.2
20260904025014 78 315 3.0 3.0 0.00 0.00 0.00 9 1015.9
20260904024552 78 315 3.0 3.0 0.00 0.00 0.00 9 1016.1
20260904024134 78 315 2.0 2.0 0.00 0.00 0.00 9 1016.1
20260904023700 78 315 2.0 2.0 0.00 0.00 0.00 9 1016.2
20260904023245 78 315 2.0 2.0 0.00 0.00 0.00 9 1016.3
20260904022819 0 0 0.0 0.0 0.00 0.00 0.00 100
20260904022406 78 337 1.0 1.0 0.00 0.00 0.00 9 1016.1
20260904021924 78 337 1.0 1.0 0.00 0.00 0.00 9 1016.2
20260904021503 0 0 0.0 0.0 0.00 0.00 0.00 100
20260904021040 0 0 0.0 0.0 0.00 0.00 0.00 100
20260904020605 0 0 0.0 0.0 0.00 0.00 0.00 100
20260904020153 0 0 0.0 0.0 0.00 0.00 0.00 100
20260904015735 79 337 1.0 2.0 0.00 0.00 0.00 8 1016.2
20260904015245 79 337 1.0 2.0 0.00 0.00 0.00 8 1016.2
20260904014819 79 337 2.0 3.0 0.00 0.00 0.00 8 1016.2
20260904014340 79 315 4.0 6.0 0.00 0.00 0.00 8 1016.2
20260904013850 0 0 0.0 0.0 0.00 0.00 0.00 100
20260904013419 0 0 0.0 0.0 0.00 0.00 0.00 100
20260904012955 0 0 0.0 0.0 0.00 0.00 0.00 100
20260904012530 0 0 0.0 0.0 0.00 0.00 0.00 100
20260904012119 79 315 2.0 2.0 0.00 0.00 0.00 9 1016.3
20260904011630 79 315 2.0 2.0 0.00 0.00 0.00 9 1016.4
20260904011153 79 292 3.0 3.0 0.00 0.00 0.00 9 1016.4
20260904010740 79 315 2.0 3.0 0.00 0.00 0.00 9 1016.6
20260904010315 79 315 3.0 4.0 0.00 0.00 0.00 9 1016.6
20260904005855 79 315 3.0 4.0 0.00 0.00 0.00 9 1016.7
20260904005415 78 292 4.0 6.0 0.00 0.00 0.00 9 1016.6
20260904004919 0 0 0.0 0.0 0.00 0.00 0.00 100
20260904004501 0 0 0.0 0.0 0.00 0.00 0.00 100
20260904004018 0 0 0.0 0.0 0.00 0.00 0.00 100
20260904003600 0 0 0.0 0.0 0.00 0.00 0.00 100
20260904003135 0 0 0.0 0.0 0.00 0.00 0.00 100
20260904002640 0 0 0.0 0.0 0.00 0.00 0.00 100
20260904002440 0 0 0.0 0.0 0.00 0.00 0.00 100
20260904002010 0 0 0.0 0.0 0.00 0.00 0.00 100
20260904001601 0 0 0.0 0.0 0.00 0.00 0.00 100
20260904001526 0 0 0.0 0.0 0.00 0.00 0.00 100
20260904001103 0 0 0.0 0.0 0.00 0.00 0.00 100
20260904000646 0 0 0.0 0.0 0.00 0.00 0.00 100
20260904000615 0 0 0.0 0.0 0.00 0.00 0.00 100
20260904000147 0 0 0.0 0.0 0.00 0.00 0.00 100
20260903235655 0 0 0.0 0.0 0.00 0.00 0.00 100
20260903235414 0 0 0.0 0.0 0.00 0.00 0.00 100
20260903235022 0 0 0.0 0.0 0.00 0.00 0.00 100
20260903234526 0 0 0.0 0.0 0.00 0.00 0.00 100
20260903234057 0 0 0.0 0.0 0.00 0.00 0.00 100
20260903233627 0 0 0.0 0.0 0.00 0.00 0.00 100
20260903233155 0 0 0.0 0.0 0.00 0.00 0.00 100
20260903232701 0 0 0.0 0.0 0.00 0.00 0.00 100
20260903232659 0 0 0.0 0.0 0.00 0.00 0.00 100
20260903232411 0 0 0.0 0.0 0.00 0.00 0.00 100
20260903232224 0 0 0.0 0.0 0.00 0.00 0.00 100
20260903231929 0 0 0.0 0.0 0.00 0.00 0.00 100
20260903231439 0 0 0.0 0.0 0.00 0.00 0.00 100
20260903231329 0 0 0.0 0.0 0.00 0.00 0.00 100
20260903231006 0 0 0.0 0.0 0.00 0.00 0.00 100
20260903230512 0 0 0.0 0.0 0.00 0.00 0.00 100
20260903230455 0 0 0.0 0.0 0.00 0.00 0.00 100
20260903230044 0 0 0.0 0.0 0.00 0.00 0.00 100
20260903225635 0 0 0.0 0.0 0.00 0.00 0.00 100
20260903225430 0 0 0.0 0.0 0.00 0.00 0.00 100
20260903224945 0 0 0.0 0.0 0.00 0.00 0.00 100
20260903224500 0 0 0.0 0.0 0.00 0.00 0.00 100
20260903224005 0 0 0.0 0.0 0.00 0.00 0.00 100
20260903223530 0 0 0.0 0.0 0.00 0.00 0.00 100
20260903223103 0 0 0.0 0.0 0.00 0.00 0.00 100
20260903222655 0 0 0.0 0.0 0.00 0.00 0.00 100
20260903222528 0 0 0.0 0.0 0.00 0.00 0.00 100
20260903222349 0 0 0.0 0.0 0.00 0.00 0.00 100
20260903222052 0 0 0.0 0.0 0.00 0.00 0.00 100
20260903221603 0 0 0.0 0.0 0.00 0.00 0.00 100
20260903221524 0 0 0.0 0.0 0.00 0.00 0.00 100
20260903221132 0 0 0.0 0.0 0.00 0.00 0.00 100
20260903220620 0 0 0.0 0.0 0.00 0.00 0.00 100
20260903220210 0 0 0.0 0.0 0.00 0.00 0.00 100
20260903215804 0 0 0.0 0.0 0.00 0.00 0.00 100
20260903215410 0 0 0.0 0.0 0.00 0.00 0.00 100
20260903215029 0 0 0.0 0.0 0.00 0.00 0.00 100
20260903214934 0 0 0.0 0.0 0.00 0.00 0.00 100
20260903214439 0 0 0.0 0.0 0.00 0.00 0.00 100
20260903214141 0 0 0.0 0.0 0.00 0.00 0.00 100
20260903213953 0 0 0.0 0.0 0.00 0.00 0.00 100
20260903213524 0 0 0.0 0.0 0.00 0.00 0.00 100
20260903213259 0 0 0.0 0.0 0.00 0.00 0.00 100
20260903213123 78 315 1.0 2.0 0.00 0.00 0.00 9 1017.3
20260903212642 78 315 1.0 2.0 0.00 0.00 0.00 9 1017.2
20260903212311 78 315 1.0 2.0 0.00 0.00 0.00 9 1017.3
20260903212212 78 315 1.0 2.0 0.00 0.00 0.00 9 1017.2
20260903211722 0 0 0.0 0.0 0.00 0.00 0.00 100
20260903211404 0 0 0.0 0.0 0.00 0.00 0.00 100
20260903211307 0 0 0.0 0.0 0.00 0.00 0.00 100
20260903210903 0 0 0.0 0.0 0.00 0.00 0.00 100
20260903210455 78 292 2.0 3.0 0.00 0.00 0.00 9 1017.5
20260903210036 78 292 2.0 3.0 0.00 0.00 0.00 9 1017.4
20260903205622 78 292 2.0 2.0 0.00 0.00 0.00 9 1017.4
20260903205421 78 270 3.0 3.0 0.00 0.00 0.00 9 1017.3
20260903204942 78 270 1.0 3.0 0.00 0.00 0.00 9 1017.3
20260903204459 78 0 0.0 0.0 0.00 0.00 0.00 9 1017.5
20260903204035 78 0 0.0 0.0 0.00 0.00 0.00 9 1017.5
20260903203615 78 90 1.0 2.0 0.00 0.00 0.00 9 1017.4
20260903203150 78 90 1.0 2.0 0.00 0.00 0.00 9 1017.3
20260903202656 78 90 2.0 2.0 0.00 0.00 0.00 9 1017.2
20260903202350 78 90 1.0 2.0 0.00 0.00 0.00 9 1017.2
20260903201901 78 90 2.0 3.0 0.00 0.00 0.00 9 1017.0
20260903201439 78 112 3.0 3.0 0.00 0.00 0.00 9 1017.1
20260903201014 78 90 3.0 4.0 0.00 0.00 0.00 9 1017.0
20260903200602 79 90 2.0 4.0 0.00 0.00 0.00 9 1016.8
20260903200154 79 90 2.0 4.0 0.00 0.00 0.00 9 1017.0
20260903195702 79 90 3.0 4.0 0.00 0.00 0.00 9 1016.9
20260903195500 79 90 2.0 3.0 0.00 0.00 0.00 9 1016.8
20260903195306 79 90 3.0 3.0 0.00 0.00 0.00 9 1016.9
20260903194859 79 90 1.0 2.0 0.00 0.00 0.00 9 1016.7
20260903194535 79 112 3.0 4.0 0.00 0.00 0.00 9 1016.7
20260903194438 79 90 4.0 6.0 0.00 0.00 0.00 9 1016.7
20260903194034 79 67 3.0 4.0 0.00 0.00 0.00 9 1016.7
20260903193648 79 90 3.0 4.0 0.00 0.00 0.00 9 1016.5
20260903193614 79 90 3.0 4.0 0.00 0.00 0.00 9 1016.5
20260903193149 79 112 3.0 4.0 0.00 0.00 0.00 9 1016.4
20260903192655 80 90 3.0 4.0 0.00 0.00 0.00 9 1016.5
20260903192525 80 90 3.0 4.0 0.00 0.00 0.00 9 1016.5
20260903192434 80 90 3.0 6.0 0.00 0.00 0.00 9 1016.3
20260903192018 80 112 3.0 4.0 0.00 0.00 0.00 9 1016.3
20260903191603 80 112 5.0 8.0 0.00 0.00 0.00 9 1016.3
20260903191532 80 112 5.0 8.0 0.00 0.00 0.00 9 1016.3
20260903191105 80 112 3.0 6.0 0.00 0.00 0.00 9 1016.3
20260903190615 80 112 6.0 6.0 0.00 0.00 0.00 9 1016.1
20260903190147 80 67 4.0 6.0 0.00 0.00 0.00 9 1016.0
20260903185700 80 90 5.0 6.0 0.00 0.00 0.00 9 1016.0
20260903185541 80 90 5.0 6.0 0.00 0.00 0.00 9 1016.0
20260903185043 80 112 3.0 6.0 0.00 0.00 0.00 9 1015.9
20260903184556 80 90 6.0 9.0 0.00 0.00 0.00 9 1015.8
20260903184111 79 90 6.0 8.0 0.00 0.00 0.00 9 1015.7
20260903183621 79 112 5.0 8.0 0.00 0.00 0.00 9 1015.8
20260903183152 80 112 3.0 6.0 0.00 0.00 0.00 9 1015.7
20260903182704 80 112 8.0 11.0 0.00 0.00 0.00 9 1015.7
20260903182424 79 112 7.0 10.0 0.00 0.00 0.00 9 1015.6
20260903181952 80 90 6.0 10.0 0.00 0.00 0.00 9 1015.7
20260903181524 80 112 7.0 10.0 0.00 0.00 0.00 9 1015.7
20260903181500 80 90 9.0 11.0 0.00 0.00 0.00 9 1015.6
20260903181027 80 67 9.0 12.0 0.00 0.00 0.00 8 1015.6
20260903180524 80 135 5.0 9.0 0.00 0.00 0.00 8 1015.6
20260903180107 80 90 6.0 10.0 0.00 0.00 0.00 8 1015.5
20260903175657 80 90 8.0 13.0 0.00 0.00 0.00 8 1015.4
20260903175552 80 90 8.0 13.0 0.00 0.00 0.00 8 1015.4
20260903175354 80 67 7.0 10.0 0.00 0.00 0.00 8 1015.4
20260903174946 80 112 9.0 13.0 0.00 0.00 0.00 8 1015.5
20260903174627 81 90 8.0 12.0 0.00 0.00 0.00 8 1015.4
20260903174537 80 112 10.0 15.0 0.00 0.00 0.00 8 1015.3
20260903174059 81 90 8.0 12.0 0.00 0.00 0.00 8 1015.4
20260903173729 81 67 11.0 15.0 0.00 0.00 0.00 8 1015.3
20260903173645 81 67 11.0 15.0 0.00 0.00 0.00 8 1015.3
20260903173237 81 67 11.0 15.0 0.00 0.00 0.00 8 1015.3
20260903172750 81 90 9.0 13.0 0.00 0.00 0.00 8 1015.3
20260903172746 81 90 9.0 13.0 0.00 0.00 0.00 8 1015.3
20260903172441 81 112 12.0 18.0 0.00 0.00 0.00 8 1015.2
20260903172027 81 112 11.0 15.0 0.00 0.00 0.00 8 1015.2
20260903171608 82 135 10.0 15.0 0.00 0.00 0.00 8 1015.3
20260903171552 82 112 9.0 13.0 0.00 0.00 0.00 8 1015.1
20260903171124 82 112 10.0 13.0 0.00 0.00 0.00 8 1015.1
20260903170738 82 90 12.0 15.0 0.00 0.00 0.00 8 1015.0
20260903170707 82 90 12.0 15.0 0.00 0.00 0.00 8 1015.0
20260903170242 82 67 12.0 17.0 0.00 0.00 0.00 8 1015.1
20260903165751 82 112 9.0 15.0 0.00 0.00 0.00 8 1015.1
20260903165749 82 112 9.0 15.0 0.00 0.00 0.00 8 1015.1
20260903165427 83 90 8.0 11.0 0.00 0.00 0.00 8 1015.1
20260903164931 82 135 12.0 15.0 0.00 0.00 0.00 8 1015.0
20260903164513 83 67 9.0 12.0 0.00 0.00 0.00 8 1015.0
20260903164029 83 67 12.0 17.0 0.00 0.00 0.00 8 1015.0
20260903163612 83 90 9.0 12.0 0.00 0.00 0.00 8 1015.0
20260903163147 83 90 9.0 13.0 0.00 0.00 0.00 8 1015.0
20260903162652 83 90 6.0 9.0 0.00 0.00 0.00 8 1015.0
20260903162446 84 67 9.0 15.0 0.00 0.00 0.00 8 1015.1
20260903161956 84 67 9.0 15.0 0.00 0.00 0.00 8 1015.0
20260903161544 84 45 9.0 12.0 0.00 0.00 0.00 8 1015.1
20260903161512 84 45 9.0 12.0 0.00 0.00 0.00 8 1015.1
20260903161110 84 45 9.0 15.0 0.00 0.00 0.00 8 1015.1
20260903160640 84 112 8.0 11.0 0.00 0.00 0.00 8 1015.2
20260903160151 84 90 9.0 13.0 0.00 0.00 0.00 8 1015.1
20260903155656 83 45 11.0 17.0 0.00 0.00 0.00 8 1015.2
20260903155445 83 90 11.0 17.0 0.00 0.00 0.00 8 1015.1
20260903155159 84 90 10.0 15.0 0.00 0.00 0.00 8 1015.4
20260903154715 84 135 9.0 12.0 0.00 0.00 0.00 8 1015.4
20260903154547 84 90 12.0 15.0 0.00 0.00 0.00 8 1015.2
20260903154245 84 67 11.0 15.0 0.00 0.00 0.00 8 1015.3
20260903153753 84 90 10.0 13.0 0.00 0.00 0.00 8 1015.5
20260903153305 84 67 9.0 13.0 0.00 0.00 0.00 8 1015.5
20260903152854 84 90 11.0 15.0 0.00 0.00 0.00 7 1015.3
20260903152439 85 67 9.0 15.0 0.00 0.00 0.00 7 1015.6
20260903152346 85 90 6.0 9.0 0.00 0.00 0.00 7 1015.6
20260903151953 85 90 10.0 15.0 0.00 0.00 0.00 7 1015.4
20260903151546 85 90 9.0 12.0 0.00 0.00 0.00 7 1015.6
20260903151500 84 90 12.0 17.0 0.00 0.00 0.00 7 1015.5
20260903151103 85 67 9.0 13.0 0.00 0.00 0.00 7 1015.7
20260903150647 84 90 8.0 11.0 0.00 0.00 0.00 7 1015.7
20260903150616 84 90 8.0 11.0 0.00 0.00 0.00 7 1015.7
20260903150147 84 67 11.0 15.0 0.00 0.00 0.00 7 1015.7
20260903145656 84 67 14.0 19.0 0.00 0.00 0.00 7 1015.6
20260903145524 84 67 14.0 19.0 0.00 0.00 0.00 7 1015.6
20260903145119 85 90 8.0 13.0 0.00 0.00 0.00 7 1015.7
20260903144650 84 67 12.0 18.0 0.00 0.00 0.00 7 1015.8
20260903144210 84 90 10.0 15.0 0.00 0.00 0.00 7 1015.9
20260903143754 85 112 10.0 15.0 0.00 0.00 0.00 7 1015.8
20260903143305 84 67 12.0 20.0 0.00 0.00 0.00 7 1015.8
20260903142853 84 135 12.0 18.0 0.00 0.00 0.00 7 1016.0
20260903142739 84 135 12.0 18.0 0.00 0.00 0.00 7 1016.0
20260903142355 84 112 9.0 15.0 0.00 0.00 0.00 7 1016.0
20260903142255 84 112 9.0 15.0 0.00 0.00 0.00 7 1016.1
20260903141849 84 112 11.0 22.0 0.00 0.00 0.00 7 1016.2
20260903141449 84 67 12.0 19.0 0.00 0.00 0.00 7 1016.1
20260903141400 84 67 12.0 19.0 0.00 0.00 0.00 7 1016.3
20260903141010 84 90 12.0 17.0 0.00 0.00 0.00 7 1016.4
20260903140527 85 67 15.0 22.0 0.00 0.00 0.00 7 1016.2
20260903140110 85 67 13.0 22.0 0.00 0.00 0.00 7 1016.1
20260903135701 85 112 11.0 17.0 0.00 0.00 0.00 7 1016.2
20260903135439 85 90 15.0 19.0 0.00 0.00 0.00 7 1016.3
20260903135013 85 90 12.0 15.0 0.00 0.00 0.00 7 1016.3
20260903134526 86 45 11.0 15.0 0.00 0.00 0.00 7 1016.4
20260903134100 86 90 12.0 17.0 0.00 0.00 0.00 7 1016.3
20260903133610 87 90 8.0 15.0 0.00 0.00 0.00 7 1016.4
20260903133142 86 45 10.0 15.0 0.00 0.00 0.00 7 1016.4
20260903132651 86 90 10.0 17.0 0.00 0.00 0.00 7 1016.5
20260903132439 86 67 10.0 13.0 0.00 0.00 0.00 7 1016.4
20260903131946 85 67 12.0 15.0 0.00 0.00 0.00 7 1016.5
20260903131544 86 90 9.0 15.0 0.00 0.00 0.00 7 1016.5
20260903131104 87 112 9.0 15.0 0.00 0.00 0.00 7 1016.5
20260903130616 86 67 11.0 18.0 0.00 0.00 0.00 7 1016.7
20260903130147 86 67 9.0 12.0 0.00 0.00 0.00 7 1016.7
20260903125658 86 112 11.0 15.0 0.00 0.00 0.00 7 1016.7
20260903125441 86 67 9.0 11.0 0.00 0.00 0.00 7 1016.7
20260903124951 86 90 9.0 13.0 0.00 0.00 0.00 7 1016.8
20260903124540 85 67 10.0 15.0 0.00 0.00 0.00 7 1016.8
20260903124106 85 90 11.0 17.0 0.00 0.00 0.00 7 1016.7
20260903123630 86 112 12.0 15.0 0.00 0.00 0.00 7 1016.8
20260903123206 86 112 6.0 9.0 0.00 0.00 0.00 7 1016.8
20260903122755 85 90 12.0 18.0 0.00 0.00 0.00 7 1016.8
20260903122259 86 90 8.0 12.0 0.00 0.00 0.00 7 1016.9
20260903121846 85 135 9.0 15.0 0.00 0.00 0.00 7 1016.9
20260903121411 86 90 9.0 13.0 0.00 0.00 0.00 7 1017.0
20260903120946 86 112 10.0 13.0 0.00 0.00 0.00 7 1017.0
20260903120538 86 135 8.0 12.0 0.00 0.00 0.00 7 1017.1
20260903120106 85 90 10.0 13.0 0.00 0.00 0.00 7 1017.0
20260903115657 86 112 8.0 10.0 0.00 0.00 0.00 7 1017.0
20260903115348 85 67 8.0 12.0 0.00 0.00 0.00 7 1017.0
20260903114930 86 112 9.0 13.0 0.00 0.00 0.00 7 1017.1
20260903114641 86 90 9.0 13.0 0.00 0.00 0.00 7 1017.1
20260903114510 86 67 8.0 11.0 0.00 0.00 0.00 7 1017.1
20260903114026 85 90 11.0 15.0 0.00 0.00 0.00 7 1017.3
20260903113642 86 112 7.0 10.0 0.00 0.00 0.00 7 1017.3
20260903113610 86 112 7.0 10.0 0.00 0.00 0.00 7 1017.3
20260903113145 85 67 9.0 13.0 0.00 0.00 0.00 7 1017.5
20260903112651 86 90 6.0 12.0 0.00 0.00 0.00 7 1017.5
20260903112335 86 90 8.0 12.0 0.00 0.00 0.00 7 1017.5
20260903111932 86 90 9.0 11.0 0.00 0.00 0.00 7 1017.4
20260903111458 86 112 8.0 11.0 0.00 0.00 0.00 7 1017.6
20260903111038 86 112 6.0 10.0 0.00 0.00 0.00 7 1017.5
20260903110543 86 112 6.0 8.0 0.00 0.00 0.00 7 1017.5
20260903110117 86 90 8.0 10.0 0.00 0.00 0.00 7 1017.5
20260903105706 86 135 5.0 9.0 0.00 0.00 0.00 7 1017.7
20260903105426 86 135 4.0 9.0 0.00 0.00 0.00 7 1017.7
20260903104939 86 112 5.0 8.0 0.00 0.00 0.00 7 1017.9
20260903104455 85 112 6.0 11.0 0.00 0.00 0.00 7 1017.8
20260903104050 85 135 6.0 12.0 0.00 0.00 0.00 7 1018.0
20260903103638 85 67 4.0 8.0 0.00 0.00 0.00 7 1018.0
20260903103149 84 90 7.0 10.0 0.00 0.00 0.00 7 1018.2
20260903102734 85 112 6.0 9.0 0.00 0.00 0.00 7 1018.1
20260903102312 84 67 6.0 8.0 0.00 0.00 0.00 7 1018.2
20260903102048 84 67 6.0 8.0 0.00 0.00 0.00 7 1018.1
20260903101838 84 112 3.0 9.0 0.00 0.00 0.00 7 1018.2
20260903101437 83 67 6.0 9.0 0.00 0.00 0.00 7 1018.3
20260903101051 85 90 6.0 10.0 0.00 0.00 0.00 7 1018.2
20260903101017 85 90 6.0 10.0 0.00 0.00 0.00 7 1018.2
20260903100552 84 67 6.0 10.0 0.00 0.00 0.00 7 1018.3
20260903100059 84 90 4.0 8.0 0.00 0.00 0.00 7 1018.2
20260903100057 84 90 4.0 8.0 0.00 0.00 0.00 7 1018.2
20260903095716 83 90 7.0 9.0 0.00 0.00 0.00 7 1018.2
20260903095317 84 67 5.0 8.0 0.00 0.00 0.00 7 1018.3
20260903095202 84 112 6.0 8.0 0.00 0.00 0.00 8 1018.1
20260903094840 84 112 3.0 6.0 0.00 0.00 0.00 7 1018.1
20260903094435 84 112 6.0 9.0 0.00 0.00 0.00 7 1018.2
20260903094339 84 112 5.0 8.0 0.00 0.00 0.00 8 1018.3
20260903093956 84 135 6.0 10.0 0.00 0.00 0.00 7 1018.3
20260903093511 84 90 4.0 6.0 0.00 0.00 0.00 7 1018.3
20260903093056 0 0 0.0 0.0 0.00 0.00 0.00 100
20260903092648 0 0 0.0 0.0 0.00 0.00 0.00 100
20260903092644 0 0 0.0 0.0 0.00 0.00 0.00 100
20260903092355 0 0 0.0 0.0 0.00 0.00 0.00 100
20260903091935 0 0 0.0 0.0 0.00 0.00 0.00 100
20260903091517 0 0 0.0 0.0 0.00 0.00 0.00 100
20260903091032 0 0 0.0 0.0 0.00 0.00 0.00 100
20260903090615 0 0 0.0 0.0 0.00 0.00 0.00 100
20260903090150 0 0 0.0 0.0 0.00 0.00 0.00 100
20260903085655 83 112 3.0 4.0 0.00 0.00 0.00 8 1018.1
20260903085441 83 112 3.0 4.0 0.00 0.00 0.00 8 1018.1
20260903085008 83 112 3.0 4.0 0.00 0.00 0.00 8 1018.0
20260903084526 83 112 3.0 4.0 0.00 0.00 0.00 8 1018.0
20260903084050 82 90 0.0 2.0 0.00 0.00 0.00 8 1018.0
20260903083619 82 112 0.0 2.0 0.00 0.00 0.00 8 1017.9
20260903083140 82 112 0.0 2.0 0.00 0.00 0.00 8 1018.0
20260903082705 82 67 1.0 3.0 0.00 0.00 0.00 8 1017.9
20260903082230 81 45 1.0 4.0 0.00 0.00 0.00 8 1017.8
20260903082007 81 45 0.0 2.0 0.00 0.00 0.00 8 1017.8
20260903081737 81 0 0.0 1.0 0.00 0.00 0.00 8 1017.8
20260903081240 82 0 0.0 2.0 0.00 0.00 0.00 8 1017.9
20260903081204 81 112 0.0 2.0 0.00 0.00 0.00 8 1017.9
20260903080838 80 0 0.0 1.0 0.00 0.00 0.00 8 1017.9
20260903080429 80 0 0.0 1.0 0.00 0.00 0.00 8 1018.0
20260903080317 80 112 2.0 3.0 0.00 0.00 0.00 8 1018.1
20260903080022 80 112 2.0 3.0 0.00 0.00 0.00 8 1017.8
20260903075536 0 0 0.0 0.0 0.00 0.00 0.00 100
20260903075416 0 0 0.0 0.0 0.00 0.00 0.00 100
20260903075041 80 180 0.0 1.0 0.00 0.00 0.00 8 1018.0
20260903074629 80 180 0.0 1.0 0.00 0.00 0.00 8 1018.1
20260903074532 80 180 0.0 1.0 0.00 0.00 0.00 8 1017.9
20260903074214 80 180 0.0 1.0 0.00 0.00 0.00 8 1018.0
20260903073705 79 0 0.0 0.0 0.00 0.00 0.00 8 1017.9
20260903073257 79 180 0.0 1.0 0.00 0.00 0.00 8 1017.9
20260903072851 79 0 0.0 0.0 0.00 0.00 0.00 8 1018.0
20260903072757 79 0 0.0 0.0 0.00 0.00 0.00 8 1018.0
20260903072307 78 0 0.0 1.0 0.00 0.00 0.00 9 1018.1
20260903071906 78 0 0.0 0.0 0.00 0.00 0.00 9 1017.9
20260903071421 77 0 0.0 0.0 0.00 0.00 0.00 9 1017.9
20260903070952 76 270 0.0 1.0 0.00 0.00 0.00 9 1017.8
20260903070459 76 0 0.0 0.0 0.00 0.00 0.00 9 1017.7
20260903070047 0 0 0.0 0.0 0.00 0.00 0.00 100
20260903065548 0 0 0.0 0.0 0.00 0.00 0.00 100
20260903065051 74 270 1.0 2.0 0.00 0.00 0.00 9 1017.8
20260903064639 74 270 1.0 2.0 0.00 0.00 0.00 9 1017.6
20260903064208 74 270 1.0 2.0 0.00 0.00 0.00 9 1017.6
20260903063711 74 270 1.0 2.0 0.00 0.00 0.00 9 1017.6
20260903063249 0 0 0.0 0.0 0.00 0.00 0.00 100
20260903062838 0 0 0.0 0.0 0.00 0.00 0.00 100
20260903062416 73 270 1.0 2.0 0.00 0.00 0.00 9 1017.5
20260903061921 73 270 1.0 2.0 0.00 0.00 0.00 9 1017.6
20260903061424 73 270 2.0 2.0 0.00 0.00 0.00 9 1017.4
20260903060930 0 0 0.0 0.0 0.00 0.00 0.00 100
20260903060439 72 0 0.0 0.0 0.00 0.00 0.00 9 1017.4
20260903060013 72 0 0.0 0.0 0.00 0.00 0.00 9 1017.3
20260903055518 72 0 0.0 0.0 0.00 0.00 0.00 9 1017.2
20260903055109 72 0 0.0 0.0 0.00 0.00 0.00 9 1017.2
20260903054709 73 0 0.0 0.0 0.00 0.00 0.00 9 1017.3
20260903054255 0 0 0.0 0.0 0.00 0.00 0.00 100
20260903053813 72 0 0.0 0.0 0.00 0.00 0.00 9 1017.0
20260903053404 72 0 0.0 0.0 0.00 0.00 0.00 9 1017.1
20260903052949 0 0 0.0 0.0 0.00 0.00 0.00 100
20260903052451 0 0 0.0 0.0 0.00 0.00 0.00 100
20260903052044 0 0 0.0 0.0 0.00 0.00 0.00 100
20260903051601 0 0 0.0 0.0 0.00 0.00 0.00 100
20260903051139 0 0 0.0 0.0 0.00 0.00 0.00 100
20260903050703 73 0 0.0 0.0 0.00 0.00 0.00 9 1016.9
20260903050210 73 0 0.0 0.0 0.00 0.00 0.00 9 1016.8